Location: White Rock
(35.8256°N, 106.1876°W)
Time: 11:42:01
(UTC-06:00)

Hubble Space Telescope - Visible Passes

Search period start: 19 October 2021 00:00
Search period end: 29 October 2021 00:00
Orbit: 535 x 538 km, 28.5° (Epoch: 18 October)

Date Brightness Start Highest point End Pass type
(mag) Time Alt. Az. Time Alt. Az. Time Alt. Az.
19 Oct 3.2 05:20:43 13° S 05:20:43 13° S 05:21:36 10° SSE visible
28 Oct 3.1 19:02:42 10° S 19:04:21 12° SSE 19:05:58 10° SE visible
28 Oct 3.5 20:41:31 10° SW 20:42:05 13° SW 20:42:05 13° SW visible
